Year,Month,Day,Hour,Minute,Value (Times are PST for temperature in C)
2006,06,24,00,00,13.60
2006,06,24,00,01,13.60
2006,06,24,00,02,13.50
2006,06,24,00,03,13.50
2006,06,24,00,04,13.50
2006,06,24,00,05,13.50
2006,06,24,00,06,13.50
2006,06,24,00,07,13.50
2006,06,24,00,08,13.50
2006,06,24,00,09,13.40
2006,06,24,00,10,13.40
2006,06,24,00,11,13.40
2006,06,24,00,12,13.40
2006,06,24,00,13,13.30
2006,06,24,00,14,13.30
2006,06,24,00,15,13.30
2006,06,24,00,16,13.30
2006,06,24,00,17,13.30
2006,06,24,00,18,13.20
2006,06,24,00,19,13.20
2006,06,24,00,20,13.20
2006,06,24,00,21,13.20
2006,06,24,00,22,13.20
2006,06,24,00,23,13.10
2006,06,24,00,24,13.10
2006,06,24,00,25,13.10
2006,06,24,00,26,13.10
2006,06,24,00,27,13.10
2006,06,24,00,28,13.10
2006,06,24,00,29,13.10
2006,06,24,00,30,13.10
2006,06,24,00,31,13.10
2006,06,24,00,32,13.10
2006,06,24,00,33,13.10
2006,06,24,00,34,13.10
2006,06,24,00,35,13.10
2006,06,24,00,36,13.10
2006,06,24,00,37,13.10
2006,06,24,00,38,13.10
2006,06,24,00,39,13.10
2006,06,24,00,40,13.10
2006,06,24,00,41,13.00
2006,06,24,00,42,13.00
2006,06,24,00,43,13.00
2006,06,24,00,44,13.00
2006,06,24,00,45,12.90
2006,06,24,00,46,12.90
2006,06,24,00,47,12.90
2006,06,24,00,48,12.80
2006,06,24,00,49,12.80
2006,06,24,00,50,12.80
2006,06,24,00,51,12.80
2006,06,24,00,52,12.80
2006,06,24,00,53,12.80
2006,06,24,00,54,12.80
2006,06,24,00,55,12.80
2006,06,24,00,56,12.80
2006,06,24,00,57,12.80
2006,06,24,00,58,12.80
2006,06,24,00,59,12.80
2006,06,24,01,00,12.80
2006,06,24,01,01,12.80
2006,06,24,01,02,12.80
2006,06,24,01,03,12.80
2006,06,24,01,04,12.80
2006,06,24,01,05,12.80
2006,06,24,01,06,12.80
2006,06,24,01,07,12.80
2006,06,24,01,08,12.80
2006,06,24,01,09,12.80
2006,06,24,01,10,12.80
2006,06,24,01,11,12.80
2006,06,24,01,12,12.80
2006,06,24,01,13,12.80
2006,06,24,01,14,12.80
2006,06,24,01,15,12.80
2006,06,24,01,16,12.80
2006,06,24,01,17,12.80
2006,06,24,01,18,12.80
2006,06,24,01,19,12.80
2006,06,24,01,20,12.80
2006,06,24,01,21,12.80
2006,06,24,01,22,12.80
2006,06,24,01,23,12.80
2006,06,24,01,24,12.80
2006,06,24,01,25,12.80
2006,06,24,01,26,12.80
2006,06,24,01,27,12.80
2006,06,24,01,28,12.80
2006,06,24,01,29,12.80
2006,06,24,01,30,12.80
2006,06,24,01,31,12.80
2006,06,24,01,32,12.80
2006,06,24,01,33,12.80
2006,06,24,01,34,12.80
2006,06,24,01,35,12.80
2006,06,24,01,36,12.70
2006,06,24,01,37,12.70
2006,06,24,01,38,12.70
2006,06,24,01,39,12.60
2006,06,24,01,40,12.60
2006,06,24,01,41,12.60
2006,06,24,01,42,12.60
2006,06,24,01,43,12.50
2006,06,24,01,44,12.50
2006,06,24,01,45,12.50
2006,06,24,01,46,12.50
2006,06,24,01,47,12.50
2006,06,24,01,48,12.50
2006,06,24,01,49,12.50
2006,06,24,01,50,12.50
2006,06,24,01,51,12.50
2006,06,24,01,52,12.60
2006,06,24,01,53,12.60
2006,06,24,01,54,12.60
2006,06,24,01,55,12.60
2006,06,24,01,56,12.60
2006,06,24,01,57,12.60
2006,06,24,01,58,12.60
2006,06,24,01,59,12.60
2006,06,24,02,00,12.70
2006,06,24,02,01,12.70
2006,06,24,02,02,12.70
2006,06,24,02,03,12.70
2006,06,24,02,04,12.70
2006,06,24,02,05,12.70
2006,06,24,02,06,12.70
2006,06,24,02,07,12.70
2006,06,24,02,08,12.70
2006,06,24,02,09,12.70
2006,06,24,02,10,12.70
2006,06,24,02,11,12.60
2006,06,24,02,12,12.60
2006,06,24,02,13,12.60
2006,06,24,02,14,12.60
2006,06,24,02,15,12.60
2006,06,24,02,16,12.60
2006,06,24,02,17,12.50
2006,06,24,02,18,12.50
2006,06,24,02,19,12.50
2006,06,24,02,20,12.50
2006,06,24,02,21,12.40
2006,06,24,02,22,12.40
2006,06,24,02,23,12.40
2006,06,24,02,24,12.40
2006,06,24,02,25,12.40
2006,06,24,02,26,12.30
2006,06,24,02,27,12.30
2006,06,24,02,28,12.30
2006,06,24,02,29,12.30
2006,06,24,02,30,12.30
2006,06,24,02,31,12.30
2006,06,24,02,32,12.30
2006,06,24,02,33,12.30
2006,06,24,02,34,12.30
2006,06,24,02,35,12.30
2006,06,24,02,36,12.30
2006,06,24,02,37,12.30
2006,06,24,02,38,12.30
2006,06,24,02,39,12.30
2006,06,24,02,40,12.30
2006,06,24,02,41,12.30
2006,06,24,02,42,12.30
2006,06,24,02,43,12.30
2006,06,24,02,44,12.30
2006,06,24,02,45,12.30
2006,06,24,02,46,12.30
2006,06,24,02,47,12.30
2006,06,24,02,48,12.30
2006,06,24,02,49,12.30
2006,06,24,02,50,12.30
2006,06,24,02,51,12.30
2006,06,24,02,52,12.40
2006,06,24,02,53,12.40
2006,06,24,02,54,12.40
2006,06,24,02,55,12.40
2006,06,24,02,56,12.40
2006,06,24,02,57,12.40
2006,06,24,02,58,12.30
2006,06,24,02,59,12.30
2006,06,24,03,00,12.30
2006,06,24,03,01,12.40
2006,06,24,03,02,12.40
2006,06,24,03,03,12.40
2006,06,24,03,04,12.40
2006,06,24,03,05,12.40
2006,06,24,03,06,12.40
2006,06,24,03,07,12.50
2006,06,24,03,08,12.50
2006,06,24,03,09,12.50
2006,06,24,03,10,12.50
2006,06,24,03,11,12.50
2006,06,24,03,12,12.50
2006,06,24,03,13,12.60
2006,06,24,03,14,12.60
2006,06,24,03,15,12.60
2006,06,24,03,16,12.60
2006,06,24,03,17,12.60
2006,06,24,03,18,12.60
2006,06,24,03,19,12.60
2006,06,24,03,20,12.50
2006,06,24,03,21,12.50
2006,06,24,03,22,12.50
2006,06,24,03,23,12.50
2006,06,24,03,24,12.50
2006,06,24,03,25,12.40
2006,06,24,03,26,12.40
2006,06,24,03,27,12.40
2006,06,24,03,28,12.30
2006,06,24,03,29,12.30
2006,06,24,03,30,12.30
2006,06,24,03,31,12.30
2006,06,24,03,32,12.20
2006,06,24,03,33,12.20
2006,06,24,03,34,12.10
2006,06,24,03,35,12.10
2006,06,24,03,36,12.10
2006,06,24,03,37,12.00
2006,06,24,03,38,12.00
2006,06,24,03,39,12.00
2006,06,24,03,40,11.90
2006,06,24,03,41,11.90
2006,06,24,03,42,11.90
2006,06,24,03,43,11.90
2006,06,24,03,44,11.90
2006,06,24,03,45,11.80
2006,06,24,03,46,11.80
2006,06,24,03,47,11.80
2006,06,24,03,48,11.80
2006,06,24,03,49,11.80
2006,06,24,03,50,11.80
2006,06,24,03,51,11.80
2006,06,24,03,52,11.80
2006,06,24,03,53,11.80
2006,06,24,03,54,11.80
2006,06,24,03,55,11.80
2006,06,24,03,56,11.80
2006,06,24,03,57,11.80
2006,06,24,03,58,11.80
2006,06,24,03,59,11.80
2006,06,24,04,00,11.80
2006,06,24,04,01,11.80
2006,06,24,04,02,11.80
2006,06,24,04,03,11.80
2006,06,24,04,04,11.80
2006,06,24,04,05,11.80
2006,06,24,04,06,11.80
2006,06,24,04,07,11.80
2006,06,24,04,08,11.80
2006,06,24,04,09,11.80
2006,06,24,04,10,11.80
2006,06,24,04,11,11.70
2006,06,24,04,12,11.70
2006,06,24,04,13,11.70
2006,06,24,04,14,11.70
2006,06,24,04,15,11.70
2006,06,24,04,16,11.70
2006,06,24,04,17,11.70
2006,06,24,04,18,11.70
2006,06,24,04,19,11.70
2006,06,24,04,20,11.70
2006,06,24,04,21,11.60
2006,06,24,04,22,11.60
2006,06,24,04,23,11.60
2006,06,24,04,24,11.60
2006,06,24,04,25,11.60
2006,06,24,04,26,11.60
2006,06,24,04,27,11.60
2006,06,24,04,28,11.60
2006,06,24,04,29,11.60
2006,06,24,04,30,11.70
2006,06,24,04,31,11.70
2006,06,24,04,32,11.70
2006,06,24,04,33,11.70
2006,06,24,04,34,11.70
2006,06,24,04,35,11.70
2006,06,24,04,36,11.70
2006,06,24,04,37,11.70
2006,06,24,04,38,11.60
2006,06,24,04,39,11.60
2006,06,24,04,40,11.60
2006,06,24,04,41,11.60
2006,06,24,04,42,11.60
2006,06,24,04,43,11.60
2006,06,24,04,44,11.50
2006,06,24,04,45,11.40
2006,06,24,04,46,11.40
2006,06,24,04,47,11.40
2006,06,24,04,48,11.40
2006,06,24,04,49,11.30
2006,06,24,04,50,11.30
2006,06,24,04,51,11.20
2006,06,24,04,52,11.20
2006,06,24,04,53,11.10
2006,06,24,04,54,11.10
2006,06,24,04,55,11.10
2006,06,24,04,56,11.10
2006,06,24,04,57,11.00
2006,06,24,04,58,10.90
2006,06,24,04,59,10.90
2006,06,24,05,00,10.90
2006,06,24,05,01,10.80
2006,06,24,05,02,10.70
2006,06,24,05,03,10.70
2006,06,24,05,04,10.60
2006,06,24,05,05,10.60
2006,06,24,05,06,10.60
2006,06,24,05,07,10.60
2006,06,24,05,08,10.60
2006,06,24,05,09,10.60
2006,06,24,05,10,10.60
2006,06,24,05,11,10.60
2006,06,24,05,12,10.70
2006,06,24,05,13,10.70
2006,06,24,05,14,10.70
2006,06,24,05,15,10.70
2006,06,24,05,16,10.70
2006,06,24,05,17,10.70
2006,06,24,05,18,10.70
2006,06,24,05,19,10.60
2006,06,24,05,20,10.60
2006,06,24,05,21,10.60
2006,06,24,05,22,10.60
2006,06,24,05,23,10.60
2006,06,24,05,24,10.60
2006,06,24,05,25,10.60
2006,06,24,05,26,10.50
2006,06,24,05,27,10.40
2006,06,24,05,28,10.40
2006,06,24,05,29,10.40
2006,06,24,05,30,10.40
2006,06,24,05,31,10.40
2006,06,24,05,32,10.40
2006,06,24,05,33,10.40
2006,06,24,05,34,10.50
2006,06,24,05,35,10.60
2006,06,24,05,36,10.60
2006,06,24,05,37,10.60
2006,06,24,05,38,10.60
2006,06,24,05,39,10.60
2006,06,24,05,40,10.60
2006,06,24,05,41,10.60
2006,06,24,05,42,10.60
2006,06,24,05,43,10.60
2006,06,24,05,44,10.60
2006,06,24,05,45,10.60
2006,06,24,05,46,10.60
2006,06,24,05,47,10.60
2006,06,24,05,48,10.60
2006,06,24,05,49,10.60
2006,06,24,05,50,10.60
2006,06,24,05,51,10.60
2006,06,24,05,52,10.60
2006,06,24,05,53,10.60
2006,06,24,05,54,10.60
2006,06,24,05,55,10.60
2006,06,24,05,56,10.60
2006,06,24,05,57,10.70
2006,06,24,05,58,10.70
2006,06,24,05,59,10.70
2006,06,24,06,00,10.70
2006,06,24,06,01,10.70
2006,06,24,06,02,10.70
2006,06,24,06,03,10.70
2006,06,24,06,04,10.70
2006,06,24,06,05,10.70
2006,06,24,06,06,10.80
2006,06,24,06,07,10.80
2006,06,24,06,08,10.80
2006,06,24,06,09,10.90
2006,06,24,06,10,10.90
2006,06,24,06,11,10.90
2006,06,24,06,12,10.90
2006,06,24,06,13,10.90
2006,06,24,06,14,10.90
2006,06,24,06,15,11.00
2006,06,24,06,16,11.10
2006,06,24,06,17,11.10
2006,06,24,06,18,11.10
2006,06,24,06,19,11.10
2006,06,24,06,20,11.30
2006,06,24,06,21,11.40
2006,06,24,06,22,11.50
2006,06,24,06,23,11.60
2006,06,24,06,24,11.70
2006,06,24,06,25,11.80
2006,06,24,06,26,11.80
2006,06,24,06,27,11.90
2006,06,24,06,28,12.00
2006,06,24,06,29,12.00
2006,06,24,06,30,12.00
2006,06,24,06,31,12.00
2006,06,24,06,32,12.00
2006,06,24,06,33,12.00
2006,06,24,06,34,12.00
2006,06,24,06,35,12.00
2006,06,24,06,36,12.10
2006,06,24,06,37,12.10
2006,06,24,06,38,12.10
2006,06,24,06,39,12.10
2006,06,24,06,40,12.10
2006,06,24,06,41,12.10
2006,06,24,06,42,12.20
2006,06,24,06,43,12.30
2006,06,24,06,44,12.30
2006,06,24,06,45,12.30
2006,06,24,06,46,12.30
2006,06,24,06,47,12.30
2006,06,24,06,48,12.40
2006,06,24,06,49,12.40
2006,06,24,06,50,12.40
2006,06,24,06,51,12.50
2006,06,24,06,52,12.50
2006,06,24,06,53,12.60
2006,06,24,06,54,12.60
2006,06,24,06,55,12.70
2006,06,24,06,56,12.70
2006,06,24,06,57,12.80
2006,06,24,06,58,12.80
2006,06,24,06,59,12.90
2006,06,24,07,00,13.00
2006,06,24,07,01,13.20
2006,06,24,07,02,13.30
2006,06,24,07,03,13.40
2006,06,24,07,04,13.40
2006,06,24,07,05,13.50
2006,06,24,07,06,13.50
2006,06,24,07,07,13.60
2006,06,24,07,08,13.60
2006,06,24,07,09,13.60
2006,06,24,07,10,13.60
2006,06,24,07,11,13.60
2006,06,24,07,12,13.60
2006,06,24,07,13,13.50
2006,06,24,07,14,13.50
2006,06,24,07,15,13.50
2006,06,24,07,16,13.50
2006,06,24,07,17,13.50
2006,06,24,07,18,13.50
2006,06,24,07,19,13.50
2006,06,24,07,20,13.50
2006,06,24,07,21,13.60
2006,06,24,07,22,13.60
2006,06,24,07,23,13.60
2006,06,24,07,24,13.60
2006,06,24,07,25,13.70
2006,06,24,07,26,13.70
2006,06,24,07,27,13.70
2006,06,24,07,28,13.70
2006,06,24,07,29,13.80
2006,06,24,07,30,13.80
2006,06,24,07,31,13.90
2006,06,24,07,32,13.90
2006,06,24,07,33,14.00
2006,06,24,07,34,14.00
2006,06,24,07,35,14.10
2006,06,24,07,36,14.20
2006,06,24,07,37,14.20
2006,06,24,07,38,14.30
2006,06,24,07,39,14.30
2006,06,24,07,40,14.40
2006,06,24,07,41,14.40
2006,06,24,07,42,14.40
2006,06,24,07,43,14.50
2006,06,24,07,44,14.50
2006,06,24,07,45,14.60
2006,06,24,07,46,14.60
2006,06,24,07,47,14.70
2006,06,24,07,48,14.80
2006,06,24,07,49,14.90
2006,06,24,07,50,15.00
2006,06,24,07,51,15.10
2006,06,24,07,52,15.30
2006,06,24,07,53,15.60
2006,06,24,07,54,15.80
2006,06,24,07,55,16.10
2006,06,24,07,56,16.40
2006,06,24,07,57,16.70
2006,06,24,07,58,17.00
2006,06,24,07,59,17.20
2006,06,24,08,00,17.30
2006,06,24,08,01,17.40
2006,06,24,08,02,17.60
2006,06,24,08,03,17.70
2006,06,24,08,04,17.70
2006,06,24,08,05,17.90
2006,06,24,08,06,17.90
2006,06,24,08,07,18.00
2006,06,24,08,08,18.10
2006,06,24,08,09,18.10
2006,06,24,08,10,18.20
2006,06,24,08,11,18.20
2006,06,24,08,12,18.20
2006,06,24,08,13,18.20
2006,06,24,08,14,18.20
2006,06,24,08,15,18.20
2006,06,24,08,16,18.30
2006,06,24,08,17,18.30
2006,06,24,08,18,18.40
2006,06,24,08,19,18.40
2006,06,24,08,20,18.50
2006,06,24,08,21,18.50
2006,06,24,08,22,18.50
2006,06,24,08,23,18.50
2006,06,24,08,24,18.60
2006,06,24,08,25,18.60
2006,06,24,08,26,18.70
2006,06,24,08,27,18.70
2006,06,24,08,28,18.70
2006,06,24,08,29,18.70
2006,06,24,08,30,18.80
2006,06,24,08,31,18.80
2006,06,24,08,32,18.70
2006,06,24,08,33,18.70
2006,06,24,08,34,18.70
2006,06,24,08,35,18.80
2006,06,24,08,36,18.90
2006,06,24,08,37,18.90
2006,06,24,08,38,18.90
2006,06,24,08,39,18.90
2006,06,24,08,40,19.00
2006,06,24,08,41,19.10
2006,06,24,08,42,19.10
2006,06,24,08,43,19.10
2006,06,24,08,44,19.10
2006,06,24,08,45,19.20
2006,06,24,08,46,19.20
2006,06,24,08,47,19.20
2006,06,24,08,48,19.20
2006,06,24,08,49,19.10
2006,06,24,08,50,19.10
2006,06,24,08,51,19.10
2006,06,24,08,52,19.10
2006,06,24,08,53,19.10
2006,06,24,08,54,19.20
2006,06,24,08,55,19.30
2006,06,24,08,56,19.30
2006,06,24,08,57,19.30
2006,06,24,08,58,19.20
2006,06,24,08,59,19.20
2006,06,24,09,00,19.30
2006,06,24,09,01,19.30
2006,06,24,09,02,19.30
2006,06,24,09,03,19.30
2006,06,24,09,04,19.30
2006,06,24,09,05,19.30
2006,06,24,09,06,19.30
2006,06,24,09,07,19.30
2006,06,24,09,08,19.40
2006,06,24,09,09,19.40
2006,06,24,09,10,19.50
2006,06,24,09,11,19.50
2006,06,24,09,12,19.50
2006,06,24,09,13,19.50
2006,06,24,09,14,19.50
2006,06,24,09,15,19.50
2006,06,24,09,16,19.50
2006,06,24,09,17,19.50
2006,06,24,09,18,19.50
2006,06,24,09,19,19.50
2006,06,24,09,20,19.50
2006,06,24,09,21,19.60
2006,06,24,09,22,19.60
2006,06,24,09,23,19.70
2006,06,24,09,24,19.80
2006,06,24,09,25,19.70
2006,06,24,09,26,19.70
2006,06,24,09,27,19.70
2006,06,24,09,28,19.80
2006,06,24,09,29,19.90
2006,06,24,09,30,19.90
2006,06,24,09,31,19.90
2006,06,24,09,32,19.90
2006,06,24,09,33,19.90
2006,06,24,09,34,19.80
2006,06,24,09,35,19.80
2006,06,24,09,36,19.80
2006,06,24,09,37,19.80
2006,06,24,09,38,19.90
2006,06,24,09,39,20.00
2006,06,24,09,40,20.10
2006,06,24,09,41,20.20
2006,06,24,09,42,20.10
2006,06,24,09,43,20.10
2006,06,24,09,44,20.10
2006,06,24,09,45,20.10
2006,06,24,09,46,20.10
2006,06,24,09,47,20.20
2006,06,24,09,48,20.10
2006,06,24,09,49,20.00
2006,06,24,09,50,19.90
2006,06,24,09,51,19.90
2006,06,24,09,52,20.00
2006,06,24,09,53,20.10
2006,06,24,09,54,20.20
2006,06,24,09,55,20.20
2006,06,24,09,56,20.20
2006,06,24,09,57,20.10
2006,06,24,09,58,20.10
2006,06,24,09,59,20.10
2006,06,24,10,00,20.20
2006,06,24,10,01,20.20
2006,06,24,10,02,20.20
2006,06,24,10,03,20.30
2006,06,24,10,04,20.30
2006,06,24,10,05,20.30
2006,06,24,10,06,20.40
2006,06,24,10,07,20.50
2006,06,24,10,08,20.40
2006,06,24,10,09,20.40
2006,06,24,10,10,20.40
2006,06,24,10,11,20.40
2006,06,24,10,12,20.40
2006,06,24,10,13,20.40
2006,06,24,10,14,20.40
2006,06,24,10,15,20.50
2006,06,24,10,16,20.50
2006,06,24,10,17,20.70
2006,06,24,10,18,20.80
2006,06,24,10,19,20.90
2006,06,24,10,20,21.00
2006,06,24,10,21,21.00
2006,06,24,10,22,20.80
2006,06,24,10,23,20.70
2006,06,24,10,24,20.70
2006,06,24,10,25,20.70
2006,06,24,10,26,20.70
2006,06,24,10,27,20.80
2006,06,24,10,28,20.90
2006,06,24,10,29,21.00
2006,06,24,10,30,21.00
2006,06,24,10,31,21.00
2006,06,24,10,32,21.00
2006,06,24,10,33,20.90
2006,06,24,10,34,20.90
2006,06,24,10,35,20.90
2006,06,24,10,36,20.90
2006,06,24,10,37,20.90
2006,06,24,10,38,20.90
2006,06,24,10,39,20.90
2006,06,24,10,40,20.90
2006,06,24,10,41,20.90
2006,06,24,10,42,20.90
2006,06,24,10,43,20.90
2006,06,24,10,44,20.90
2006,06,24,10,45,20.90
2006,06,24,10,46,20.90
2006,06,24,10,47,20.90
2006,06,24,10,48,21.00
2006,06,24,10,49,21.10
2006,06,24,10,50,21.20
2006,06,24,10,51,21.30
2006,06,24,10,52,21.40
2006,06,24,10,53,21.40
2006,06,24,10,54,21.40
2006,06,24,10,55,21.60
2006,06,24,10,56,21.60
2006,06,24,10,57,21.60
2006,06,24,10,58,21.60
2006,06,24,10,59,21.40
2006,06,24,11,00,21.40
2006,06,24,11,01,21.40
2006,06,24,11,02,21.40
2006,06,24,11,03,21.40
2006,06,24,11,04,21.50
2006,06,24,11,05,21.60
2006,06,24,11,06,21.60
2006,06,24,11,07,21.60
2006,06,24,11,08,21.60
2006,06,24,11,09,21.70
2006,06,24,11,10,21.70
2006,06,24,11,11,21.70
2006,06,24,11,12,21.80
2006,06,24,11,13,21.90
2006,06,24,11,14,22.00
2006,06,24,11,15,22.00
2006,06,24,11,16,22.00
2006,06,24,11,17,21.90
2006,06,24,11,18,21.80
2006,06,24,11,19,21.80
2006,06,24,11,20,21.90
2006,06,24,11,21,21.90
2006,06,24,11,22,21.80
2006,06,24,11,23,22.00
2006,06,24,11,24,22.00
2006,06,24,11,25,22.10
2006,06,24,11,26,22.20
2006,06,24,11,27,22.20
2006,06,24,11,28,22.20
2006,06,24,11,29,22.20
2006,06,24,11,30,22.20
2006,06,24,11,31,22.20
2006,06,24,11,32,22.20
2006,06,24,11,33,22.30
2006,06,24,11,34,22.30
2006,06,24,11,35,22.20
2006,06,24,11,36,22.20
2006,06,24,11,37,22.20
2006,06,24,11,38,22.20
2006,06,24,11,39,22.30
2006,06,24,11,40,22.30
2006,06,24,11,41,22.30
2006,06,24,11,42,22.40
2006,06,24,11,43,22.30
2006,06,24,11,44,22.30
2006,06,24,11,45,22.30
2006,06,24,11,46,22.40
2006,06,24,11,47,22.50
2006,06,24,11,48,22.50
2006,06,24,11,49,22.60
2006,06,24,11,50,22.60
2006,06,24,11,51,22.60
2006,06,24,11,52,22.70
2006,06,24,11,53,22.80
2006,06,24,11,54,22.80
2006,06,24,11,55,22.80
2006,06,24,11,56,22.70
2006,06,24,11,57,22.70
2006,06,24,11,58,22.70
2006,06,24,11,59,22.80
2006,06,24,12,00,22.90
2006,06,24,12,01,22.90
2006,06,24,12,02,23.00
2006,06,24,12,03,23.10
2006,06,24,12,04,23.10
2006,06,24,12,05,23.00
2006,06,24,12,06,23.00
2006,06,24,12,07,23.10
2006,06,24,12,08,23.10
2006,06,24,12,09,23.20
2006,06,24,12,10,23.10
2006,06,24,12,11,22.90
2006,06,24,12,12,22.90
2006,06,24,12,13,22.80
2006,06,24,12,14,22.80
2006,06,24,12,15,22.90
2006,06,24,12,16,22.90
2006,06,24,12,17,22.90
2006,06,24,12,18,23.10
2006,06,24,12,19,23.20
2006,06,24,12,20,23.20
2006,06,24,12,21,23.30
2006,06,24,12,22,23.20
2006,06,24,12,23,23.10
2006,06,24,12,24,23.00
2006,06,24,12,25,22.90
2006,06,24,12,26,23.00
2006,06,24,12,27,23.20
2006,06,24,12,28,23.10
2006,06,24,12,29,23.20
2006,06,24,12,30,23.20
2006,06,24,12,31,23.20
2006,06,24,12,32,23.10
2006,06,24,12,33,23.10
2006,06,24,12,34,23.10
2006,06,24,12,35,23.10
2006,06,24,12,36,23.20
2006,06,24,12,37,23.30
2006,06,24,12,38,23.30
2006,06,24,12,39,23.30
2006,06,24,12,40,23.40
2006,06,24,12,41,23.40
2006,06,24,12,42,23.30
2006,06,24,12,43,23.30
2006,06,24,12,44,23.40
2006,06,24,12,45,23.50
2006,06,24,12,46,23.70
2006,06,24,12,47,23.70
2006,06,24,12,48,23.70
2006,06,24,12,49,23.70
2006,06,24,12,50,23.60
2006,06,24,12,51,23.70
2006,06,24,12,52,23.70
2006,06,24,12,53,23.70
2006,06,24,12,54,23.70
2006,06,24,12,55,23.70
2006,06,24,12,56,23.70
2006,06,24,12,57,23.80
2006,06,24,12,58,23.80
2006,06,24,12,59,23.90
2006,06,24,13,00,23.90
2006,06,24,13,01,23.90
2006,06,24,13,02,23.90
2006,06,24,13,03,24.00
2006,06,24,13,04,24.10
2006,06,24,13,05,24.20
2006,06,24,13,06,24.40
2006,06,24,13,07,24.30
2006,06,24,13,08,24.30
2006,06,24,13,09,24.30
2006,06,24,13,10,24.30
2006,06,24,13,11,24.30
2006,06,24,13,12,24.30
2006,06,24,13,13,24.40
2006,06,24,13,14,24.50
2006,06,24,13,15,24.50
2006,06,24,13,16,24.50
2006,06,24,13,17,24.50
2006,06,24,13,18,24.50
2006,06,24,13,19,24.40
2006,06,24,13,20,24.30
2006,06,24,13,21,24.40
2006,06,24,13,22,24.40
2006,06,24,13,23,24.40
2006,06,24,13,24,24.40
2006,06,24,13,25,24.40
2006,06,24,13,26,24.50
2006,06,24,13,27,24.50
2006,06,24,13,28,24.50
2006,06,24,13,29,24.50
2006,06,24,13,30,24.60
2006,06,24,13,31,24.60
2006,06,24,13,32,24.80
2006,06,24,13,33,25.00
2006,06,24,13,34,25.10
2006,06,24,13,35,25.00
2006,06,24,13,36,24.90
2006,06,24,13,37,24.70
2006,06,24,13,38,24.60
2006,06,24,13,39,24.50
2006,06,24,13,40,24.40
2006,06,24,13,41,24.50
2006,06,24,13,42,24.50
2006,06,24,13,43,24.50
2006,06,24,13,44,24.60
2006,06,24,13,45,24.60
2006,06,24,13,46,24.60
2006,06,24,13,47,24.70
2006,06,24,13,48,24.80
2006,06,24,13,49,24.90
2006,06,24,13,50,25.00
2006,06,24,13,51,25.10
2006,06,24,13,52,25.10
2006,06,24,13,53,25.10
2006,06,24,13,54,25.20
2006,06,24,13,55,25.20
2006,06,24,13,56,25.00
2006,06,24,13,57,24.90
2006,06,24,13,58,24.80
2006,06,24,13,59,24.80
2006,06,24,14,00,24.80
2006,06,24,14,01,24.80
2006,06,24,14,02,24.90
2006,06,24,14,03,24.90
2006,06,24,14,04,24.80
2006,06,24,14,05,24.70
2006,06,24,14,06,24.60
2006,06,24,14,07,24.50
2006,06,24,14,08,24.50
2006,06,24,14,09,24.50
2006,06,24,14,10,24.50
2006,06,24,14,11,24.70
2006,06,24,14,12,24.70
2006,06,24,14,13,24.80
2006,06,24,14,14,24.90
2006,06,24,14,15,25.00
2006,06,24,14,16,25.20
2006,06,24,14,17,25.40
2006,06,24,14,18,25.50
2006,06,24,14,19,25.60
2006,06,24,14,20,25.70
2006,06,24,14,21,25.70
2006,06,24,14,22,25.70
2006,06,24,14,23,25.80
2006,06,24,14,24,25.80
2006,06,24,14,25,25.80
2006,06,24,14,26,25.90
2006,06,24,14,27,26.00
2006,06,24,14,28,26.00
2006,06,24,14,29,26.00
2006,06,24,14,30,25.90
2006,06,24,14,31,25.90
2006,06,24,14,32,25.80
2006,06,24,14,33,25.70
2006,06,24,14,34,25.60
2006,06,24,14,35,25.50
2006,06,24,14,36,25.40
2006,06,24,14,37,25.40
2006,06,24,14,38,25.40
2006,06,24,14,39,25.40
2006,06,24,14,40,25.50
2006,06,24,14,41,25.50
2006,06,24,14,42,25.60
2006,06,24,14,43,25.80
2006,06,24,14,44,25.90
2006,06,24,14,45,26.00
2006,06,24,14,46,26.10
2006,06,24,14,47,26.20
2006,06,24,14,48,26.30
2006,06,24,14,49,26.40
2006,06,24,14,50,26.40
2006,06,24,14,51,26.40
2006,06,24,14,52,26.30
2006,06,24,14,53,26.00
2006,06,24,14,54,25.70
2006,06,24,14,55,25.40
2006,06,24,14,56,25.20
2006,06,24,14,57,25.00
2006,06,24,14,58,24.70
2006,06,24,14,59,24.30
2006,06,24,15,00,23.90
2006,06,24,15,01,23.50
2006,06,24,15,02,23.30
2006,06,24,15,03,23.30
2006,06,24,15,04,23.30
2006,06,24,15,05,23.30
2006,06,24,15,06,23.30
2006,06,24,15,07,23.30
2006,06,24,15,08,23.30
2006,06,24,15,09,23.30
2006,06,24,15,10,23.30
2006,06,24,15,11,23.40
2006,06,24,15,12,23.60
2006,06,24,15,13,23.60
2006,06,24,15,14,23.50
2006,06,24,15,15,23.40
2006,06,24,15,16,23.30
2006,06,24,15,17,23.10
2006,06,24,15,18,22.90
2006,06,24,15,19,22.80
2006,06,24,15,20,22.80
2006,06,24,15,21,22.80
2006,06,24,15,22,22.70
2006,06,24,15,23,22.60
2006,06,24,15,24,22.50
2006,06,24,15,25,22.50
2006,06,24,15,26,22.30
2006,06,24,15,27,22.30
2006,06,24,15,28,22.30
2006,06,24,15,29,22.30
2006,06,24,15,30,22.30
2006,06,24,15,31,22.40
2006,06,24,15,32,22.60
2006,06,24,15,33,22.70
2006,06,24,15,34,22.70
2006,06,24,15,35,22.60
2006,06,24,15,36,22.70
2006,06,24,15,37,22.80
2006,06,24,15,38,22.90
2006,06,24,15,39,22.90
2006,06,24,15,40,23.00
2006,06,24,15,41,23.00
2006,06,24,15,42,22.90
2006,06,24,15,43,22.90
2006,06,24,15,44,22.60
2006,06,24,15,45,22.40
2006,06,24,15,46,22.30
2006,06,24,15,47,22.20
2006,06,24,15,48,22.00
2006,06,24,15,49,22.00
2006,06,24,15,50,22.00
2006,06,24,15,51,22.10
2006,06,24,15,52,22.20
2006,06,24,15,53,22.30
2006,06,24,15,54,22.40
2006,06,24,15,55,22.50
2006,06,24,15,56,22.60
2006,06,24,15,57,22.70
2006,06,24,15,58,22.90
2006,06,24,15,59,22.90
2006,06,24,16,00,22.70
2006,06,24,16,01,22.60
2006,06,24,16,02,22.40
2006,06,24,16,03,22.40
2006,06,24,16,04,22.40
2006,06,24,16,05,22.40
2006,06,24,16,06,22.30
2006,06,24,16,07,22.30
2006,06,24,16,08,22.30
2006,06,24,16,09,22.40
2006,06,24,16,10,22.60
2006,06,24,16,11,22.60
2006,06,24,16,12,22.50
2006,06,24,16,13,22.60
2006,06,24,16,14,22.70
2006,06,24,16,15,22.70
2006,06,24,16,16,22.70
2006,06,24,16,17,22.70
2006,06,24,16,18,22.50
2006,06,24,16,19,22.30
2006,06,24,16,20,22.10
2006,06,24,16,21,21.80
2006,06,24,16,22,21.70
2006,06,24,16,23,21.60
2006,06,24,16,24,21.60
2006,06,24,16,25,21.40
2006,06,24,16,26,21.30
2006,06,24,16,27,21.20
2006,06,24,16,28,21.10
2006,06,24,16,29,20.90
2006,06,24,16,30,20.70
2006,06,24,16,31,20.60
2006,06,24,16,32,20.50
2006,06,24,16,33,20.40
2006,06,24,16,34,20.30
2006,06,24,16,35,20.30
2006,06,24,16,36,20.50
2006,06,24,16,37,20.70
2006,06,24,16,38,20.90
2006,06,24,16,39,21.00
2006,06,24,16,40,20.90
2006,06,24,16,41,20.90
2006,06,24,16,42,21.00
2006,06,24,16,43,21.10
2006,06,24,16,44,21.20
2006,06,24,16,45,21.20
2006,06,24,16,46,21.20
2006,06,24,16,47,21.20
2006,06,24,16,48,20.80
2006,06,24,16,49,20.70
2006,06,24,16,50,20.50
2006,06,24,16,51,20.40
2006,06,24,16,52,20.50
2006,06,24,16,53,20.60
2006,06,24,16,54,20.70
2006,06,24,16,55,20.70
2006,06,24,16,56,20.80
2006,06,24,16,57,21.00
2006,06,24,16,58,21.20
2006,06,24,16,59,21.40
2006,06,24,17,00,21.60
2006,06,24,17,01,21.70
2006,06,24,17,02,21.70
2006,06,24,17,03,21.70
2006,06,24,17,04,21.80
2006,06,24,17,05,21.80
2006,06,24,17,06,22.00
2006,06,24,17,07,22.00
2006,06,24,17,08,22.00
2006,06,24,17,09,22.00
2006,06,24,17,10,22.00
2006,06,24,17,11,22.00
2006,06,24,17,12,22.60
2006,06,24,17,13,22.70
2006,06,24,17,14,22.80
2006,06,24,17,15,22.90
2006,06,24,17,16,22.90
2006,06,24,17,17,22.90
2006,06,24,17,18,22.80
2006,06,24,17,19,22.80